This demonstration page uses our WeatherBlox Daily Observations layout. Learn more.

38.89511, -77.03637

Hourly Observations for February 8, 2015

Temp ( °F °C ) Dew Point ( °F °C ) Humidity (%) Winds ( mph kmh ) Pressure ( in mb ) Visibility ( mi km ) Precip ( " mm )
12:52 am 00:52 Cloudy 36 2.2 24 -4.4 62 62 NNE 5 7 29.94 1014 10 16.0934 0 0
1:52 am 01:52 Cloudy 36 2.2 24 -4.4 62 62 NNE 3 6 29.93 1014 10 16.0934 0 0
2:52 am 02:52 Cloudy 37 2.8 23 -5 57 57 Calm 29.92 1013 10 16.0934 0 0
3:52 am 03:52 Cloudy 37 2.8 23 -5 57 57 Calm 29.91 1013 10 16.0934 0 0
4:52 am 04:52 Cloudy 35 1.7 28 -2.2 76 76 S 3 6 29.91 1013 10 16.0934 0 0
5:52 am 05:52 Cloudy 36 2.2 28 -2.2 73 73 Calm 29.91 1013 10 16.0934 0 0
6:52 am 06:52 Cloudy 36 2.2 27 -2.8 70 70 SSW 3 6 29.91 1013 10 16.0934 0 0
7:52 am 07:52 Cloudy 36 2.2 28 -2.2 73 73 S 5 7 29.91 1013 10 16.0934 0 0
8:52 am 08:52 Cloudy 40 4.4 25 -3.9 55 55 SSW 3 6 29.91 1013 10 16.0934 0 0
9:52 am 09:52 Cloudy 41 5 24 -4.4 51 51 S 3 6 29.89 1012 10 16.0934 0 0
10:52 am 10:52 Mostly Cloudy 44 6.7 24 -4.4 45 45 S 3 6 29.88 1012 10 16.0934 0 0
11:52 am 11:52 Mostly Cloudy 50 10 25 -3.9 38 38 SSE 5 7 29.85 1011 10 16.0934 0 0
12:52 pm 12:52 Mostly Cloudy 57 13.9 26 -3.3 30 30 Calm 29.81 1009 10 16.0934 0 0
1:52 pm 13:52 Mostly Cloudy 59 15 28 -2.2 31 31 NE 3 6 29.78 1008 10 16.0934 0 0
2:52 pm 14:52 Mostly Cloudy 64 17.8 30 -1.1 28 28 NE 5 7 29.75 1008 10 16.0934 0 0
3:52 pm 15:52 Mostly Cloudy 67 19.4 29 -1.7 24 24 N 5 7 29.75 1007 10 16.0934 0 0
4:52 pm 16:52 Mostly Cloudy 61 16.1 30 -1.1 31 31 NE 9 15 29.75 1007 10 16.0934 0 0
5:52 pm 17:52 Mostly Cloudy 55 12.8 29 -1.7 37 37 NE 12 19 29.77 1008 10 16.0934 0 0
6:52 pm 18:52 Mostly Cloudy 51 10.6 29 -1.7 43 43 NNE 6 9 29.8 1009 10 16.0934 0 0
7:52 pm 19:52 Partly Cloudy 49 9.4 28 -2.2 44 44 NNE 8 13 29.8 1009 10 16.0934 0 0
8:52 pm 20:52 Partly Cloudy 46 7.8 28 -2.2 50 50 NNE 7 11 29.8 1009 10 16.0934 0 0
9:52 pm 21:52 Partly Cloudy 45 7.2 28 -2.2 52 52 N 8 13 29.78 1009 10 16.0934 0 0
10:52 pm 22:52 Cloudy 46 7.8 28 -2.2 50 50 NNE 9 15 29.79 1009 10 16.0934 0 0
11:52 pm 23:52 Cloudy 44 6.7 28 -2.2 53 53 ENE 5 7 29.78 1009 10 16.0934 0 0

Powered by AerisWeather